Location: Unspecified
(49.9820°N, 20.4363°E)
Time: 06:19:16
(UTC+02:00)

S-56A Canister/Altair - Visible Passes

Search period start: 14 May 2026 00:00
Search period end: 24 May 2026 00:00
Orbit: 633 x 2484 km, 38.9° (Epoch: 13 May)

Date Brightness Start Highest point End Pass type
(mag) Time Alt. Az. Time Alt. Az. Time Alt. Az.
14 May 10.0 03:22:17 11° SSW 03:22:17 11° SSW 03:23:15 10° S visible
14 May 8.9 22:37:01 10° SW 22:38:34 17° SSW 22:38:34 17° SSW visible
15 May 8.5 22:02:32 10° SW 22:05:44 19° SSE 22:05:56 19° SSE visible
16 May 8.6 21:28:01 10° SSW 21:31:03 18° SSE 21:33:09 14° SE visible
16 May 9.4 23:30:06 10° SW 23:30:25 11° SW 23:30:25 11° SW visible
17 May 8.7 22:55:29 10° SW 22:57:30 19° SSW 22:57:30 19° SSW visible
18 May 8.4 22:20:49 10° SW 22:24:11 21° S 22:24:30 21° S visible
19 May 8.5 21:46:07 10° SW 21:49:30 21° S 21:51:26 16° SSE visible
20 May 8.5 21:11:21 10° SW 21:14:49 21° S 21:18:11 10° SE visible
20 May 9.2 23:14:39 10° SW 23:15:34 13° SW 23:15:34 13° SW visible
21 May 8.8 22:39:48 10° SW 22:42:26 16° SSW 22:42:26 16° SSW visible
22 May 8.7 22:04:54 10° SW 22:07:56 18° SSW 22:09:16 16° S visible
23 May 8.7 21:29:56 10° WSW 21:33:16 19° SSW 21:36:05 11° SSE visible
